EN

Hourly Weather Lukashevka

Today, 25 November, Wednesday

Time Temperature Precipitation Wind Pressure Humidity
00:00 -8°C° 0 mm 2 mps 759 mmHg 83%
01:00 -7°C° 0 mm 1 mps 759 mmHg 83%
02:00 -7°C° 0 mm 1 mps 759 mmHg 83%
03:00 -6°C° 0 mm 1 mps 759 mmHg 82%
04:00 -6°C° 0 mm 1 mps 758 mmHg 82%
05:00 -6°C° 0 mm 1 mps 758 mmHg 82%
06:00 -6°C° 0 mm 1 mps 758 mmHg 82%
07:00 -6°C° 0 mm 1 mps 758 mmHg 82%
08:00 -4°C° 0 mm 1 mps 758 mmHg 82%
09:00 -3°C° 0 mm 1 mps 758 mmHg 81%
10:00 -2°C° 0 mm 1 mps 758 mmHg 79%
11:00 -1°C° 0 mm 1 mps 757 mmHg 76%
12:00 0°C° 0 mm 1 mps 757 mmHg 73%
13:00 0°C° 0 mm 1 mps 756 mmHg 76%
14:00 0°C° 0 mm 1 mps 756 mmHg 80%
15:00 0°C° 0 mm 1 mps 756 mmHg 83%
16:00 -1°C° 0 mm 1 mps 756 mmHg 84%
17:00 -2°C° 0 mm 1 mps 756 mmHg 85%
18:00 -4°C° 0 mm 0 mps 756 mmHg 86%
19:00 -3°C° 0 mm 1 mps 757 mmHg 88%
20:00 -3°C° 0 mm 1 mps 757 mmHg 90%
21:00 -2°C° 0 mm 1 mps 757 mmHg 92%
22:00 -5°C° 0.1 mm 2 mps 758 mmHg 91%
23:00 -7°C° 0.1 mm 3 mps 758 mmHg 89%

Tomorrow, 26 November, Thursday

Time Temperature Precipitation Wind Pressure Humidity
00:00 -8°C° 0.1 mm 3 mps 758 mmHg 88%
01:00 -8°C° 0 mm 3 mps 759 mmHg 88%
02:00 -8°C° 0 mm 2 mps 759 mmHg 88%
03:00 -8°C° 0 mm 2 mps 760 mmHg 88%
04:00 -9°C° 0 mm 2 mps 760 mmHg 87%
05:00 -9°C° 0 mm 2 mps 761 mmHg 87%
06:00 -9°C° 0 mm 2 mps 761 mmHg 87%
07:00 -9°C° 0 mm 2 mps 762 mmHg 85%
08:00 -9°C° 0 mm 2 mps 762 mmHg 84%
09:00 -8°C° 0 mm 2 mps 762 mmHg 83%
10:00 -7°C° 0 mm 2 mps 762 mmHg 76%
11:00 -7°C° 0 mm 3 mps 762 mmHg 68%
12:00 -5°C° 0 mm 3 mps 762 mmHg 61%
13:00 -6°C° 0 mm 3 mps 762 mmHg 63%
14:00 -6°C° 0 mm 3 mps 762 mmHg 64%
15:00 -6°C° 0 mm 3 mps 762 mmHg 66%
16:00 -8°C° 0 mm 3 mps 762 mmHg 67%
17:00 -9°C° 0 mm 3 mps 762 mmHg 69%
18:00 -10°C° 0 mm 3 mps 763 mmHg 70%
19:00 -12°C° 0 mm 3 mps 763 mmHg 70%
20:00 -12°C° 0 mm 3 mps 763 mmHg 70%
21:00 -12°C° 0 mm 2 mps 763 mmHg 70%
22:00 -12°C° 0 mm 2 mps 763 mmHg 70%
23:00 -12°C° 0 mm 2 mps 763 mmHg 70%

Day after tomorrow, 27 November, Friday

Time Temperature Precipitation Wind Pressure Humidity
00:00 -13°C° 0 mm 2 mps 763 mmHg 70%
01:00 -13°C° 0 mm 2 mps 763 mmHg 71%
02:00 -13°C° 0 mm 2 mps 763 mmHg 72%
03:00 -13°C° 0 mm 2 mps 762 mmHg 73%
04:00 -14°C° 0 mm 2 mps 762 mmHg 74%
05:00 -14°C° 0 mm 2 mps 762 mmHg 74%
06:00 -14°C° 0 mm 2 mps 762 mmHg 75%
07:00 -13°C° 0 mm 2 mps 762 mmHg 75%
08:00 -10°C° 0 mm 1 mps 762 mmHg 75%
09:00 -10°C° 0 mm 1 mps 762 mmHg 75%
10:00 -8°C° 0 mm 1 mps 761 mmHg 70%
11:00 -8°C° 0 mm 2 mps 761 mmHg 66%
12:00 -6°C° 0 mm 2 mps 760 mmHg 61%
13:00 -6°C° 0 mm 2 mps 760 mmHg 64%
14:00 -6°C° 0 mm 2 mps 759 mmHg 67%
15:00 -6°C° 0 mm 2 mps 759 mmHg 70%
16:00 -7°C° 0 mm 2 mps 759 mmHg 71%
17:00 -9°C° 0 mm 2 mps 759 mmHg 72%
18:00 -10°C° 0 mm 2 mps 759 mmHg 72%
19:00 -12°C° 0 mm 2 mps 759 mmHg 73%
20:00 -12°C° 0 mm 2 mps 759 mmHg 73%
21:00 -12°C° 0 mm 2 mps 759 mmHg 74%
22:00 -13°C° 0 mm 2 mps 759 mmHg 74%
23:00 -13°C° 0 mm 2 mps 759 mmHg 75%

28 November, Saturday

Time Temperature Precipitation Wind Pressure Humidity
00:00 -14°C° 0 mm 2 mps 759 mmHg 76%
01:00 -14°C° 0 mm 2 mps 759 mmHg 76%
02:00 -14°C° 0 mm 2 mps 759 mmHg 77%
03:00 -14°C° 0 mm 2 mps 759 mmHg 78%
04:00 -15°C° 0 mm 2 mps 759 mmHg 79%
05:00 -15°C° 0 mm 2 mps 759 mmHg 79%
06:00 -15°C° 0 mm 2 mps 759 mmHg 80%
07:00 -14°C° 0 mm 2 mps 759 mmHg 79%
08:00 -14°C° 0 mm 2 mps 759 mmHg 79%
09:00 -11°C° 0 mm 1 mps 760 mmHg 78%
10:00 -10°C° 0 mm 1 mps 759 mmHg 74%
11:00 -8°C° 0 mm 1 mps 759 mmHg 69%
12:00 -7°C° 0 mm 1 mps 759 mmHg 65%
13:00 -7°C° 0 mm 1 mps 759 mmHg 68%
14:00 -7°C° 0 mm 1 mps 759 mmHg 71%
15:00 -7°C° 0 mm 1 mps 759 mmHg 75%
16:00 -8°C° 0 mm 1 mps 759 mmHg 75%
17:00 -9°C° 0 mm 1 mps 759 mmHg 76%
18:00 -10°C° 0 mm 1 mps 760 mmHg 77%
19:00 -11°C° 0 mm 1 mps 760 mmHg 77%
20:00 -11°C° 0 mm 1 mps 760 mmHg 76%
21:00 -11°C° 0 mm 1 mps 760 mmHg 76%
22:00 -11°C° 0 mm 1 mps 760 mmHg 75%
23:00 -11°C° 0 mm 1 mps 760 mmHg 75%

29 November, Sunday

Time Temperature Precipitation Wind Pressure Humidity
00:00 -12°C° 0 mm 1 mps 761 mmHg 75%
01:00 -12°C° 0 mm 1 mps 761 mmHg 74%
02:00 -12°C° 0 mm 1 mps 760 mmHg 74%
03:00 -12°C° 0 mm 1 mps 760 mmHg 73%
04:00 -12°C° 0 mm 1 mps 760 mmHg 73%
05:00 -12°C° 0 mm 1 mps 760 mmHg 73%
06:00 -12°C° 0 mm 1 mps 760 mmHg 74%
07:00 -12°C° 0 mm 1 mps 760 mmHg 73%
08:00 -13°C° 0 mm 2 mps 761 mmHg 73%
09:00 -12°C° 0 mm 2 mps 761 mmHg 73%
10:00 -10°C° 0 mm 2 mps 760 mmHg 69%
11:00 -8°C° 0 mm 2 mps 760 mmHg 66%
12:00 -6°C° 0 mm 2 mps 760 mmHg 62%
13:00 -6°C° 0 mm 2 mps 760 mmHg 64%
14:00 -6°C° 0 mm 2 mps 759 mmHg 67%
15:00 -6°C° 0 mm 2 mps 759 mmHg 69%
16:00 -8°C° 0 mm 2 mps 760 mmHg 70%
17:00 -9°C° 0 mm 2 mps 760 mmHg 71%
18:00 -12°C° 0 mm 3 mps 760 mmHg 72%
19:00 -13°C° 0 mm 3 mps 760 mmHg 73%
20:00 -13°C° 0 mm 3 mps 761 mmHg 73%
21:00 -13°C° 0 mm 3 mps 761 mmHg 74%
22:00 -13°C° 0 mm 2 mps 761 mmHg 74%
23:00 -13°C° 0 mm 2 mps 761 mmHg 75%

30 November, Monday

Time Temperature Precipitation Wind Pressure Humidity
00:00 -14°C° 0 mm 2 mps 762 mmHg 75%
01:00 -14°C° 0 mm 2 mps 762 mmHg 75%
02:00 -14°C° 0 mm 2 mps 762 mmHg 76%
03:00 -14°C° 0 mm 2 mps 762 mmHg 76%
04:00 -14°C° 0 mm 2 mps 762 mmHg 76%
05:00 -14°C° 0 mm 2 mps 762 mmHg 76%
06:00 -15°C° 0 mm 2 mps 763 mmHg 76%
07:00 -14°C° 0 mm 2 mps 763 mmHg 75%
08:00 -13°C° 0 mm 2 mps 763 mmHg 74%
09:00 -13°C° 0 mm 2 mps 763 mmHg 73%
10:00 -10°C° 0 mm 2 mps 763 mmHg 69%
11:00 -10°C° 0 mm 3 mps 763 mmHg 65%
12:00 -8°C° 0 mm 3 mps 763 mmHg 61%
13:00 -8°C° 0 mm 3 mps 763 mmHg 63%
14:00 -9°C° 0 mm 3 mps 763 mmHg 66%
15:00 -9°C° 0 mm 3 mps 763 mmHg 68%
16:00 -10°C° 0 mm 3 mps 764 mmHg 69%
17:00 -10°C° 0 mm 2 mps 764 mmHg 71%
18:00 -12°C° 0 mm 2 mps 765 mmHg 72%
19:00 -13°C° 0 mm 2 mps 765 mmHg 72%
20:00 -13°C° 0 mm 2 mps 765 mmHg 73%
21:00 -13°C° 0 mm 2 mps 766 mmHg 74%
22:00 -14°C° 0 mm 2 mps 766 mmHg 74%
23:00 -12°C° 0 mm 1 mps 766 mmHg 75%
Show more